Location: Nelson
(41.2830°S, 173.2830°E)
Time: 04:39:59
(UTC+12:00)

PSLV R/B - Pass Details

Date: 14 May 2021
Orbit: 567 x 597 km, 98.2° (Epoch: 17 June)

Event Time Altitude Azimuth Distance (km) Brightness Sun altitude
Rises 18:37:21 0° 9° (N) 2,810 7.5 -14.8°
Reaches altitude 10° 18:39:31 10° 6° (N) 1,914 6.6 -15.2°
Maximum altitude 18:43:39 69° 282° (WNW) 633 4.3 -16.0°
Drops below altitude 10° 18:47:49 10° 198° (SSW) 1,924 6.7 -16.7°
Sets 18:49:59 0° 195° (SSW) 2,827 7.5 -17.1°
